Back to catalog

STARLINK-3335

AliveCommunicationsVLEO
NORAD 50806·PAYLOAD·🇺🇸 United States

Launched Jan 6, 2022 from Cape Canaveral Space Force Station

Loading…

Next Passes (next 24 hours)

TLE

FreshSource: CelesTrak SupGP

Epoch: Sep 14, 2026, 14:02 UTC

1 50806C 22001D   26257.58520833 -.00020634  00000+0 -60997-3 0  2577
2 50806  53.1606  23.0352 0001237  80.3059  89.2999 15.34384307    10

Track STARLINK-3335 in real time with AllMySat

Download on the App Store